Regional Weather Roundup
Issued by NWS

Home | Current Version | Previous Version | Text Only | Print | Product List | Glossary On
Versions: 1 2 3 4 5 6 7 8 9 10 11 12 13 14 15 16 17 18 19 20 21 22 23 24 25 26 27 28 29 30 31 32 33 34 35 36 37 38 39 40 41 42 43 44 45 46 47 48 49 50
000
ASUS43 KTOP 291608
RWRKS

WEATHER ROUNDUP FOR KANSAS
NATIONAL WEATHER SERVICE GOODLAND KS
1100 AM CDT WED MAR 29 2017

NOTE:  "FAIR" INDICATES FEW OR NO CLOUDS BELOW 12,000 FEET WITH NO
SIGNIFICANT WEATHER AND/OR OBSTRUCTIONS TO VISIBILITY.

KSZ001>006-013>018-027>032-041>047-291700-
NORTHWEST KANSAS

CITY           SKY/WX    TMP DP  RH WIND       PRES   REMARKS
GOODLAND       CLOUDY    41  39  93 N24G35    29.98S
HAYS             N/A     45  43  93 N26G40    29.80F
HILL CITY      LGT RAIN  45  44  97 N21G29    29.91S FOG
RUSSELL        LGT RAIN  46  44  93 N29G40    29.76F FOG
$$

KSZ061>065-074>080-084>089-291700-
SOUTHWEST KANSAS

CITY           SKY/WX    TMP DP  RH WIND       PRES   REMARKS
DODGE CITY     RAIN      43  42  97 N26G36    29.78R FOG
ELKHART          N/A     39  29  67 N17         N/A  WCI  30
GARDEN CITY    RAIN      42  40  92 N23G33    29.85S
GREAT BEND     HVY RAIN  46  44  93 N25G35    29.74R
LIBERAL        CLOUDY    43  37  81 N21       29.85S
PRATT          LGT RAIN  44  43  99 N23G29    29.67S
$$

KSZ066>073-081>083-090>101-291700-
SOUTHEAST KANSAS

CITY           SKY/WX    TMP DP  RH WIND       PRES   REMARKS
CHANUTE        CLOUDY    62  57  83 SE15G24   29.63F
COFFEYVILLE    PTSUNNY   68  60  75 SE20G29   29.63S
HUTCHINSON     LGT RAIN  50  48  93 NE18G26   29.64F FOG
MEDICINE LODGE   N/A     48  46  93 N22       29.62R
NEWTON         LGT RAIN  50  49  96 NE16      29.64S FOG
PARSONS        CLOUDY    66  60  81 SE13G22   29.64S
WICHITA INTL   LGT RAIN  54  52  93 NE12      29.62R
WICHITA JABRA  CLOUDY    53  52  96 NE8       29.62R
WICHITA MCCONL LGT RAIN  54  52  94 E6        29.61S
WINFIELD       CLOUDY    59  56  89 SE6       29.62R
$$

KSZ007>012-019>026-033>040-048>060-102>105-291700-
NORTHEAST KANSAS

CITY           SKY/WX    TMP DP  RH WIND       PRES   REMARKS
CONCORDIA      RAIN      46  45  96 NE20G29   29.80F FOG
EMPORIA        CLOUDY    52  52 100 E17       29.65S FOG
LAWRENCE       CLOUDY    51  50  96 E15       29.75S
MANHATTAN      RAIN      49  49 100 NE20G26   29.74R FOG
MARYSVILLE     RAIN      45  45 100 NE16G26   29.82F
OLATHE IND     CLOUDY    51  49  92 E21G30    29.73F
OLATHE EXE     CLOUDY    50  50 100 E14G25    29.74F
SALINA         RAIN      49  46  90 NE22G32   29.72S FOG
TOPEKA BILLARD CLOUDY    50  50 100 E20       29.74F
TOPEKA FORBES  CLOUDY    51  49  92 E18G24    29.72F
$$




USA.gov is the U.S. government's official web portal to all federal, state and local government web resources and services.